Location: Bletchingley
(51.2333°N, 0.1000°W)
Time: 22:50:23
(UTC+00:00)

Cosmos 1766 - Pass Details

Date: 18 September 2020
Orbit: 522 x 543 km, 82.5° (Epoch: 20 October)

Event Time Altitude Azimuth Distance (km) Brightness Sun altitude
Exits shadow 21:09:25 44° 301° (WNW) 751 4.3 -26.8°
Drops below altitude 10° 21:12:56 10° 360° (N) 1,805 6.5 -27.2°
Sets 21:15:11 0° 6° (N) 2,705 7.4 -27.5°
